Home   Weather   Moroni   Past weeks
Flag for Comoros

Past Weather in Moroni, Comoros — Yesterday and Last 2 Weeks

Now
84 °F

Passing clouds.


Feels Like: 96 °F
Forecast: 87 / 79 °F
Wind: 3 mph from East

Location: Hahaya International Airport

Current Time: Feb 17, 2020 at 9:32:21 pm

Latest Report: Feb 17, 2020 at 8:00 pm


Visibility: N/A

Pressure: 29.89 "Hg

Humidity: 84%

Dew Point: 79 °F

Location of MoroniLocation

Past Weather in Moroni — Graph

°F

Moroni Temperature Yesterday

Maximum temperature yesterday: 90 °F (at 11:00 am)
Minimum temperature yesterday: 81 °F (at 10:00 pm)
Average temperature yesterday: 86 °F

High & Low Weather Summary for the Past Weeks

 TemperatureHumidityPressure
High91 °F (Feb 9, 2:00 pm)94% (Feb 3, 1:00 am)29.98 "Hg (Feb 3, 1:00 am)
Low75 °F (Feb 4, 6:00 am)59% (Feb 7, 3:00 pm)29.77 "Hg (Feb 11, 4:00 pm)
Average85 °F75%29.90 "Hg
* Reported Feb 2 8:00 pm — Feb 17 8:00 pm, Moroni. Weather by CustomWeather, © 2020

Note: Actual official high and low records may vary slightly from our data, if they occured in-between our weather recording intervals... More about our weather records

Moroni Weather History for the Previous 24 Hours

Scroll right to see more
 ConditionsComfort  
Time TempWeatherWind HumidityBarometerVisibility
8:00 pm
Mon, Feb 17
84 °FPassing clouds.3 mph84%29.89 "HgN/A
7:00 pm84 °FPassing clouds.5 mph79%29.86 "HgN/A
6:00 pm88 °FPassing clouds.6 mph70%29.86 "HgN/A
5:00 pm90 °FPassing clouds.7 mph67%29.86 "HgN/A
4:00 pm90 °FPassing clouds.5 mph71%29.83 "HgN/A
3:00 pm91 °FPassing clouds.7 mph63%29.86 "HgN/A
2:00 pm91 °FPassing clouds.5 mph67%29.86 "HgN/A
1:00 pm91 °FScattered clouds.6 mph67%29.89 "HgN/A
12:00 pm90 °FPassing clouds.5 mph67%29.92 "HgN/A
11:00 am90 °FPassing clouds.5 mph71%29.92 "HgN/A
10:00 am88 °FPassing clouds.3 mph75%29.95 "HgN/A
9:00 am88 °FPassing clouds.1 mph70%29.95 "HgN/A
8:00 am82 °FScattered clouds.5 mph89%29.92 "HgN/A
7:00 am79 °FScattered clouds.9 mph89%29.92 "HgN/A
6:00 am79 °FRain. Partly cloudy.5 mph94%29.89 "Hg3 mi
2:00 am79 °FLight rain. Passing clouds.6 mph94%29.86 "HgN/A
1:00 am81 °FPassing clouds.6 mph84%29.86 "HgN/A
12:00 am81 °FPassing clouds.5 mph84%29.89 "HgN/A
11:00 pm
Sun, Feb 16
81 °FPassing clouds.5 mph84%29.92 "HgN/A
10:00 pm81 °FPassing clouds.5 mph84%29.92 "HgN/A
9:00 pm82 °FPassing clouds.3 mph84%29.89 "HgN/A
Weather by CustomWeather, © 2020

See weather overview

Advertising